Meridianville, AL

8:24 AM CST on December 04, 2016 (GMT -0600)
Huntsville Madison

Weather History for KMDQ - April, 2013

Change the Weather History Date:

Saturday, April 27, 2013

  Actual Average (KHSV) Record (KHSV)
Temperature  
Mean Temperature 60 °F 65 °F  
Max Temperature 68 °F 77 °F 90 °F (1986)
Min Temperature 51 °F 54 °F 36 °F (1919)
Degree Days  
Heating Degree Days 6 3  
Month to date heating degree days 147  
Since 1 July heating degree days 2967  
Cooling Degree Days 0 3  
Month to date cooling degree days 49  
Year to date cooling degree days 63  
Growing Degree Days 10 (Base 50)    
Moisture  
Dew Point 52 °F    
Average Humidity 73    
Maximum Humidity 88    
Minimum Humidity 63    
Precipitation  
Precipitation 0.06 in 0.15 in 3.50 in (2011)
Month to date precipitation 3.87  
Year to date precipitation 18.81  
Snow  
Snow 0.00 in - - ()
Month to date snowfall  
Since 1 July snowfall  
Snow Depth -    
Sea Level Pressure  
Sea Level Pressure 30.14 in    
Wind  
Wind Speed 4 mph (SE)    
Max Wind Speed 13 mph    
Max Gust Speed 20 mph    
Visibility 10 miles    
Events Rain , Thunderstorm    
T = Trace of Precipitation, MM = Missing Value Source: NWS Daily Summary

Daily Weather History Graph

Daily Weather History Graph

Search for Another Location

Airport or City:

Trip Planner

Search our weather history database for the weather conditions in past years. The results will help you decide how hot, cold, wet, or windy it might be!

Date:

Astronomy

Apr. 27, 2013 Rise Set
Actual Time 5:59 AM CDT 7:28 PM CDT
Civil Twilight 5:32 AM CDT 7:55 PM CDT
Nautical Twilight 5:00 AM CDT 8:27 PM CDT
Astronomical Twilight 4:27 AM CDT 9:01 PM CDT
Moon 9:52 PM CDT (4/27) 7:21 AM CDT (4/27)
Length of Visible Light 14h 22m
Length of Day
13h 28m
Waning Gibbous, 95% of the Moon is Illuminated
Apr 27
Waning Gibbous
May 2
Last Quarter
May 9
New
May 17
First Quarter
May 24
Full

Hourly Weather History & Observations

Time (CDT) Temp. Dew Point Humidity Pressure Visibility Wind Dir Wind Speed Gust Speed Precip Events Conditions
12:15 AM 53.6 °F 46.4 °F 77% 30.30 in 10.0 mi Calm Calm - N/A Rain , Thunderstorm Light Thunderstorms and Rain
12:35 AM 53.6 °F 46.4 °F 77% 30.29 in 10.0 mi NE 3.5 mph - N/A Thunderstorm Mostly Cloudy
12:55 AM 51.8 °F 46.4 °F 82% 30.27 in 7.0 mi NNE 3.5 mph - 0.02 in Rain , Thunderstorm Heavy Thunderstorms and Rain
1:15 AM 53.6 °F 48.2 °F 82% 30.26 in 10.0 mi Calm Calm - 0.01 in Rain Light Rain
1:35 AM 53.6 °F 48.2 °F 82% 30.29 in 10.0 mi Calm Calm - 0.01 in   Overcast
1:55 AM 53.6 °F 48.2 °F 82% 30.28 in 10.0 mi NE 3.5 mph - 0.01 in   Overcast
2:15 AM 53.6 °F 48.2 °F 82% 30.26 in 10.0 mi Calm Calm - N/A Thunderstorm Unknown
2:35 AM 53.6 °F 48.2 °F 82% 30.26 in 10.0 mi Calm Calm - N/A Rain Light Rain
2:55 AM 53.6 °F 48.2 °F 82% 30.26 in 7.0 mi East 5.8 mph - 0.01 in Rain Rain
3:15 AM 53.6 °F 50.0 °F 88% 30.25 in 10.0 mi Calm Calm - N/A Rain Rain
3:35 AM 53.6 °F 50.0 °F 88% 30.25 in 7.0 mi Calm Calm - N/A   Overcast
3:55 AM 53.6 °F 50.0 °F 88% 30.25 in 10.0 mi Calm Calm - N/A Rain Light Rain
4:15 AM 53.6 °F 50.0 °F 88% 30.24 in 10.0 mi Calm Calm - N/A   Overcast
4:35 AM 53.6 °F 50.0 °F 88% 30.25 in 10.0 mi South 3.5 mph - 0.01 in Rain Light Rain
4:55 AM 53.6 °F 50.0 °F 88% 30.23 in 10.0 mi SE 4.6 mph - 0.01 in Rain Rain
5:15 AM 53.6 °F 50.0 °F 88% 30.22 in 10.0 mi ESE 4.6 mph - N/A   Overcast
6:35 AM 53.6 °F 48.2 °F 82% 30.19 in 10.0 mi ESE 8.1 mph - N/A   Overcast
6:55 AM 53.6 °F 48.2 °F 82% 30.19 in 10.0 mi SE 8.1 mph - N/A   Overcast
7:15 AM 55.4 °F 48.2 °F 77% 30.19 in 10.0 mi SE 10.4 mph 17.3 mph N/A   Overcast
7:35 AM 55.4 °F 48.2 °F 77% 30.19 in 10.0 mi SE 5.8 mph - N/A   Overcast
7:55 AM 55.4 °F 48.2 °F 77% 30.19 in 10.0 mi SE 8.1 mph - N/A   Overcast
8:15 AM 55.4 °F 48.2 °F 77% 30.19 in 10.0 mi SE 5.8 mph - N/A   Overcast
8:35 AM 55.4 °F 48.2 °F 77% 30.18 in 10.0 mi SSE 9.2 mph - N/A   Overcast
8:55 AM 57.2 °F 48.2 °F 72% 30.18 in 10.0 mi SSE 8.1 mph - N/A   Overcast
9:15 AM 59.0 °F 48.2 °F 67% 30.20 in 10.0 mi SSE 8.1 mph - N/A   Overcast
9:35 AM 59.0 °F 50.0 °F 72% 30.19 in 10.0 mi SSE 8.1 mph - N/A Thunderstorm Overcast
9:55 AM 59.0 °F 50.0 °F 72% 30.19 in 10.0 mi SE 9.2 mph - N/A   Overcast
10:15 AM 59.0 °F 50.0 °F 72% 30.20 in 10.0 mi SE 6.9 mph 16.1 mph N/A   Overcast
10:35 AM 59.0 °F 50.0 °F 72% 30.22 in 10.0 mi NNE 3.5 mph - N/A   Overcast
10:55 AM 59.0 °F 50.0 °F 72% 30.21 in 10.0 mi ESE 4.6 mph - N/A   Overcast
11:15 AM 60.8 °F 51.8 °F 72% 30.19 in 10.0 mi East 6.9 mph - N/A   Overcast
11:35 AM 62.6 °F 50.0 °F 63% 30.19 in 10.0 mi SE 10.4 mph - N/A   Overcast
11:55 AM 60.8 °F 50.0 °F 68% 30.20 in 10.0 mi ENE 3.5 mph - N/A   Overcast
12:15 PM 62.6 °F 50.0 °F 63% 30.18 in 10.0 mi ESE 5.8 mph - N/A   Overcast
12:35 PM 62.6 °F 50.0 °F 63% 30.17 in 10.0 mi ESE 8.1 mph - N/A   Overcast
12:55 PM 62.6 °F 51.8 °F 68% 30.16 in 7.0 mi SE 5.8 mph - N/A Rain Rain
1:15 PM 62.6 °F 53.6 °F 72% 30.14 in 7.0 mi SE 5.8 mph - 0.01 in Rain Rain
1:35 PM 64.4 °F 53.6 °F 68% 30.15 in 10.0 mi ESE 3.5 mph - 0.01 in   Overcast
1:55 PM 68.0 °F 55.4 °F 64% 30.14 in 10.0 mi ESE 3.5 mph - 0.01 in   Mostly Cloudy
2:15 PM 66.2 °F 53.6 °F 64% 30.14 in 10.0 mi ESE 5.8 mph - N/A   Overcast
2:35 PM 66.2 °F 53.6 °F 64% 30.13 in 10.0 mi East 4.6 mph - N/A   Overcast
2:55 PM 66.2 °F 53.6 °F 64% 30.11 in 10.0 mi ESE 5.8 mph - N/A   Overcast
3:15 PM 66.2 °F 53.6 °F 64% 30.12 in 10.0 mi East 4.6 mph - N/A   Overcast
3:35 PM 64.4 °F 53.6 °F 68% 30.10 in 10.0 mi ESE 4.6 mph - N/A   Overcast
3:55 PM 64.4 °F 53.6 °F 68% 30.09 in 10.0 mi SE 6.9 mph - N/A   Overcast
4:15 PM 66.2 °F 53.6 °F 64% 30.08 in 10.0 mi SE 6.9 mph - N/A   Overcast
4:35 PM 66.2 °F 53.6 °F 64% 30.07 in 10.0 mi SSE 8.1 mph - N/A   Overcast
4:55 PM 66.2 °F 53.6 °F 64% 30.07 in 10.0 mi SE 5.8 mph - N/A   Mostly Cloudy
5:15 PM 66.2 °F 53.6 °F 64% 30.06 in 10.0 mi SE 8.1 mph - N/A   Overcast
5:35 PM 66.2 °F 53.6 °F 64% 30.06 in 10.0 mi SE 4.6 mph - N/A   Overcast
5:55 PM 66.2 °F 53.6 °F 64% 30.05 in 10.0 mi SE 6.9 mph - N/A   Overcast
6:15 PM 66.2 °F 53.6 °F 64% 30.06 in 10.0 mi SE 8.1 mph - N/A   Overcast
6:35 PM 66.2 °F 53.6 °F 64% 30.03 in 10.0 mi SE 6.9 mph - N/A   Mostly Cloudy
6:55 PM 66.2 °F 53.6 °F 64% 30.04 in 10.0 mi SE 6.9 mph - N/A   Scattered Clouds
7:15 PM 66.2 °F 53.6 °F 64% 30.02 in 10.0 mi SE 9.2 mph - N/A   Mostly Cloudy
7:35 PM 66.2 °F 55.4 °F 68% 30.03 in 10.0 mi SSE 8.1 mph - N/A   Overcast
7:55 PM 66.2 °F 55.4 °F 68% 30.04 in 10.0 mi SSE 6.9 mph - N/A Thunderstorm Mostly Cloudy
8:15 PM 64.4 °F 55.4 °F 73% 30.03 in 10.0 mi SE 8.1 mph - N/A   Scattered Clouds
8:35 PM 64.4 °F 55.4 °F 73% 30.03 in 10.0 mi SE 6.9 mph - N/A   Scattered Clouds
8:55 PM 64.4 °F 55.4 °F 73% 30.03 in 10.0 mi SE 9.2 mph - N/A   Mostly Cloudy
9:15 PM 64.4 °F 55.4 °F 73% 30.02 in 10.0 mi SE 9.2 mph - N/A   Scattered Clouds
9:35 PM 64.4 °F 55.4 °F 73% 30.02 in 10.0 mi SE 8.1 mph - N/A   Clear
9:55 PM 64.4 °F 55.4 °F 73% 30.03 in 10.0 mi SE 6.9 mph - N/A   Scattered Clouds
10:15 PM 62.6 °F 55.4 °F 77% 30.02 in 10.0 mi SE 6.9 mph - N/A   Mostly Cloudy
10:35 PM 64.4 °F 55.4 °F 73% 30.01 in 10.0 mi SE 5.8 mph - N/A   Mostly Cloudy
10:55 PM 64.4 °F 55.4 °F 73% 30.00 in 10.0 mi SE 9.2 mph - N/A   Overcast
11:15 PM 64.4 °F 55.4 °F 73% 30.01 in 10.0 mi SSE 9.2 mph - N/A   Overcast
11:35 PM 64.4 °F 55.4 °F 73% 30.00 in 10.0 mi SSE 11.5 mph - N/A   Overcast
11:55 PM 64.4 °F 55.4 °F 73% 30.01 in 10.0 mi SSE 12.7 mph 19.6 mph N/A   Overcast